Wind_Speed
24 22 23 24 24 24 23 21 21 22 23 25 24 22 22 23 24 25 25 24 23 22 22 22 22 22 22 22 22 22 22 22 22 22 22 23 23 24 24 24 24 24 24 25
26 25 24 25 25 25 25 23 23 25 26 25 26 25 24 25 25 26 27 26 24 24 23 24 24 24 24 24 23 23 24 24 24 24 24 25 25 25 25 25 26 26 27 27
26 24 25 25 24 24 25 26 27 28 29 26 27 26 27 29 28 28 28 27 27 26 25 25 25 26 25 25 25 25 25 25 25 26 26 26 26 26 26 26 27 28 28 28
25 24 27 26 24 25 26 27 29 31 31 30 30 29 29 30 29 28 29 29 29 28 28 27 27 28 27 26 26 26 26 26 26 26 26 26 27 28 29 29 29 29 29 29
24 23 24 25 26 25 25 28 29 31 32 29 30 31 31 31 30 29 29 30 29 29 28 28 28 28 28 27 27 27 27 27 28 28 29 29 29 30 30 30 31 31 31 31
24 24 24 26 26 25 26 29 29 30 32 32 32 33 33 32 31 30 30 30 30 30 29 29 29 28 28 28 29 29 29 29 30 30 30 31 31 31 31 32 32 32 32 32
26 26 26 26 26 26 28 30 29 30 30 31 32 34 34 33 32 32 31 31 31 31 30 30 30 30 30 30 30 30 31 32 32 32 33 33 33 33 33 34 34 34 34 34
27 27 28 29 28 28 29 30 30 30 31 31 32 33 33 33 34 33 34 33 33 33 32 32 32 33 33 33 33 33 34 34 34 34 34 35 35 35 36 36 35 36 36 36
29 30 30 30 30 31 31 31 31 31 32 32 32 33 33 34 33 33 33 34 34 33 34 34 35 34 34 34 35 35 36 36 36 36 36 36 37 37 37 37 37 37 38 38
29 30 30 30 31 30 31 32 32 32 32 32 33 32 33 33 34 33 33 34 34 34 34 35 35 35 35 35 36 36 37 37 38 38 38 38 38 38 38 38 38 38 39 39
31 32 31 32 32 32 32 32 32 31 32 32 33 33 33 34 34 34 34 34 35 35 36 36 36 35 35 36 36 36 37 38 38 39 39 39 39 39 39 39 39 39 39 39
32 31 30 31 31 31 32 32 31 32 32 33 34 34 33 33 33 34 35 35 35 35 36 36 36 35 36 36 37 37 38 38 39 39 39 39 39 39 39 39 39 40 40 40
30 29 29 30 30 30 31 31 31 30 31 32 33 33 33 33 33 33 34 36 36 36 35 36 36 36 37 37 38 38 38 39 39 39 39 39 39 39 39 39 39 39 40 40
30 28 28 29 30 30 30 30 30 30 31 31 31 31 32 32 33 33 33 34 36 36 35 35 36 36 37 38 38 39 38 38 39 39 39 39 39 39 39 39 39 39 39 39
28 28 28 29 30 30 30 31 31 30 30 30 30 30 30 31 31 32 33 33 34 35 36 36 36 37 37 38 38 38 38 37 38 38 38 38 39 39 39 39 38 38 38 38
28 28 29 29 29 29 29 29 30 29 28 28 29 29 30 30 30 30 32 33 34 34 34 35 36 36 36 36 36 36 36 36 36 37 37 37 38 38 38 37 37 37 37 37
28 27 28 28 28 29 29 29 29 29 29 29 28 29 29 30 30 31 32 32 33 33 34 34 35 35 34 34 34 35 35 35 36 36 35 36 36 36 36 36 37 36 36 36
27 27 27 27 27 28 27 28 28 29 29 29 29 29 30 30 31 31 31 32 32 33 33 34 34 33 33 33 33 33 34 34 35 35 35 35 35 36 36 36 36 35 35 36
26 26 27 27 28 27 27 27 27 28 29 29 29 29 29 30 31 31 31 31 32 33 32 32 32 32 33 33 33 34 34 35 34 34 34 35 35 36 35 35 35 35 35 35
26 26 27 27 27 27 27 26 26 27 28 28 28 28 29 29 30 30 31 31 31 32 31 30 30 31 32 32 32 32 33 33 33 34 34 35 35 34 34 34 35 34 34 34
24 25 26 26 26 25 26 26 26 27 27 27 28 28 28 28 28 29 29 29 28 29 29 29 29 30 30 31 31 31 31 32 33 33 34 33 33 33 32 32 33 33 32 32
24 25 26 26 26 25 26 26 27 28 27 27 27 28 28 29 28 28 28 28 27 28 29 29 29 29 30 30 30 31 32 31 32 32 32 31 31 31 30 30 31 31 31 31
24 25 25 26 26 26 26 26 27 27 27 27 27 27 28 27 26 26 27 27 28 28 28 29 30 30 30 30 31 31 32 31 30 31 30 30 30 29 28 29 29 29 29 29
23 24 24 25 24 25 25 26 26 26 26 26 26 27 27 27 27 26 27 27 28 28 28 28 28 29 29 30 30 31 30 30 29 29 28 28 28 27 28 28 28 29 29 28
22 22 23 23 23 23 24 24 25 25 26 26 26 27 27 27 28 27 27 26 26 27 28 28 28 28 29 29 29 29 29 28 28 28 28 28 28 28 28 27 26 27 27 26
21 22 22 22 22 22 23 23 24 24 24 24 24 25 25 25 25 26 26 25 26 27 28 28 28 28 28 28 27 27 27 27 27 27 27 26 26 26 25 25 25 25 25 26
20 21 21 21 22 22 23 23 24 24 24 24 23 23 23 23 24 24 24 24 25 25 26 26 26 26 26 26 25 25 25 25 25 25 25 25 25 25 25 25 25 25 26 26
Wind_Direction
239 241 242 245 249 251 251 248 251 253 258 263 267 269 269 272 275 276 276 278 280 281 282 283 285 288 291 291 292 294 296 297 297 298 298 299 299 299 300 299 299 300 299 299
243 244 246 247 248 246 251 253 252 255 260 264 267 268 269 271 275 276 276 277 279 280 282 281 282 285 288 292 292 293 293 293 295 296 297 298 298 297 298 297 297 298 299 299
245 247 249 248 249 249 249 248 252 255 258 260 263 267 270 270 271 272 276 277 278 279 280 279 280 283 286 288 291 292 291 291 294 295 296 297 297 298 299 299 298 298 299 300
251 248 248 248 249 252 252 252 256 258 260 263 263 265 267 269 270 269 273 276 277 277 278 279 280 281 284 285 288 289 290 291 292 293 295 295 296 297 298 298 297 298 299 299
251 252 253 251 249 250 253 255 256 257 258 260 263 267 268 270 271 271 273 275 276 277 278 278 278 279 282 282 284 286 287 289 291 292 293 293 294 295 296 296 297 297 298 297
250 249 250 252 255 255 255 257 258 260 260 262 263 267 268 271 273 273 272 274 275 275 277 277 277 279 281 281 282 284 286 288 289 290 291 292 292 291 292 294 296 296 295 296
248 250 252 256 257 257 255 258 260 263 264 266 266 267 269 270 271 273 272 272 272 272 274 276 277 278 279 280 281 283 285 287 289 289 291 292 291 291 292 293 294 294 294 294
250 250 252 257 257 258 257 259 260 262 265 268 269 269 270 271 270 272 272 272 271 270 271 274 276 278 280 280 281 282 284 286 287 289 290 291 291 291 291 292 292 293 293 292
254 253 255 257 258 259 262 263 263 264 266 268 269 271 273 272 271 271 271 272 271 270 272 275 277 279 280 280 281 281 282 284 285 287 288 288 288 289 290 291 291 292 292 291
254 255 255 258 260 260 262 263 265 267 269 270 270 271 273 272 270 270 270 272 272 273 274 276 278 279 280 281 281 282 283 283 284 286 287 287 287 288 290 290 290 291 291 291
255 254 255 259 262 262 263 263 265 266 268 270 272 272 273 273 271 270 271 271 272 273 275 276 276 277 279 280 282 282 283 283 284 284 285 286 287 288 288 290 290 290 290 290
256 259 259 261 263 264 265 266 267 267 269 272 272 272 272 273 273 272 271 271 271 273 274 275 275 277 279 280 281 282 283 284 284 285 286 287 288 288 289 289 289 289 289 289
256 259 260 262 265 267 268 269 270 270 272 273 273 273 272 273 273 274 274 272 272 272 273 275 276 278 279 280 281 283 284 284 284 285 286 287 288 288 288 288 289 289 289 289
256 258 260 262 264 266 267 270 272 272 273 274 275 275 274 274 274 274 275 274 273 273 274 275 276 278 280 281 282 283 284 284 285 286 287 287 288 288 288 288 289 290 290 290
256 258 260 263 264 265 267 271 273 274 275 275 275 275 276 276 276 275 275 276 274 274 274 275 277 278 280 281 283 284 285 285 286 287 288 289 289 289 289 289 290 290 290 291
256 258 260 263 264 267 270 273 274 275 276 276 276 278 278 278 278 277 277 277 275 275 276 277 278 279 280 280 282 285 286 287 287 287 287 288 289 289 290 290 291 291 291 291
257 260 262 265 267 269 272 274 275 275 276 277 277 279 280 280 279 279 280 279 278 277 278 279 279 279 282 284 285 286 287 288 288 287 287 288 289 289 290 291 292 292 292 291
259 261 264 267 269 271 273 275 276 278 278 278 279 280 281 282 282 281 281 280 280 279 279 280 280 282 284 285 287 288 288 289 289 288 289 290 292 292 291 292 293 294 294 293
260 263 265 268 270 271 275 277 277 279 279 280 281 282 283 283 282 282 283 283 282 281 281 282 282 283 284 286 288 290 290 290 290 290 292 293 294 294 293 292 293 294 295 294
261 263 266 268 271 273 276 278 279 280 280 282 283 283 284 284 284 284 285 285 284 283 283 283 284 286 287 288 290 290 291 292 292 293 294 295 295 295 295 294 293 294 294 295
262 265 269 271 272 274 276 279 280 281 282 283 283 283 285 285 285 284 285 285 285 285 286 286 287 289 290 290 291 292 292 293 293 294 296 296 295 295 295 295 295 295 295 296
264 266 270 272 272 274 276 278 280 282 284 285 284 284 285 286 285 285 284 284 284 285 287 288 288 289 291 293 293 294 293 293 294 295 296 296 295 295 296 297 297 297 296 296
265 266 269 271 272 274 277 280 282 284 285 286 286 286 286 288 287 285 285 284 285 287 288 288 288 289 291 293 294 295 294 293 294 295 295 295 296 295 296 298 298 298 297 297
266 267 269 271 273 275 278 280 283 284 285 286 286 286 286 286 285 287 287 287 288 288 289 289 289 290 292 293 293 294 294 295 295 295 295 295 296 297 298 298 298 298 299 298
268 269 270 272 274 276 279 281 282 283 285 285 285 285 287 287 287 289 290 290 289 288 290 291 291 291 292 292 292 293 295 296 296 295 296 296 296 296 297 297 298 298 297 297
269 270 272 274 276 278 278 279 282 285 287 287 287 288 289 290 291 292 294 294 292 291 292 292 292 292 292 292 293 294 295 296 296 297 298 299 298 299 299 298 299 300 299 298
271 272 273 274 275 277 279 280 282 285 286 287 288 289 290 292 294 295 296 297 296 295 294 295 296 296 295 294 295 295 296 296 297 298 300 301 300 299 299 299 299 299 299 300
Height
5885 5887 5889 5890 5892 5894 5895 5895 5897 5897 5897 5895 5893 5893 5893 5894 5895 5894 5894 5894 5894 5894 5893 5892 5891 5891 5890 5889 5888 5886 5885 5884 5883 5881 5879 5878 5876 5874 5872 5870 5869 5867 5865 5863
5878 5880 5882 5884 5886 5888 5889 5890 5891 5891 5891 5890 5888 5888 5888 5888 5888 5888 5888 5888 5887 5887 5887 5886 5886 5885 5885 5884 5882 5881 5880 5879 5877 5876 5874 5872 5870 5869 5867 5865 5862 5861 5858 5856
5871 5873 5874 5877 5879 5881 5883 5883 5883 5883 5883 5883 5882 5881 5881 5881 5880 5881 5881 5882 5881 5881 5880 5880 5880 5879 5878 5877 5876 5875 5874 5873 5871 5870 5868 5866 5864 5863 5861 5858 5856 5854 5852 5849
5864 5867 5868 5872 5873 5874 5875 5875 5875 5875 5874 5875 5875 5874 5874 5873 5873 5874 5875 5874 5874 5874 5874 5873 5872 5872 5871 5871 5870 5869 5868 5866 5865 5864 5862 5860 5858 5856 5854 5852 5849 5847 5845 5843
5858 5859 5861 5863 5864 5867 5868 5868 5868 5868 5867 5867 5867 5867 5867 5866 5866 5866 5867 5867 5867 5866 5866 5865 5865 5864 5864 5864 5863 5862 5861 5860 5858 5857 5855 5853 5851 5849 5847 5845 5842 5840 5838 5835
5851 5853 5855 5857 5857 5859 5861 5859 5859 5859 5859 5860 5861 5860 5859 5859 5859 5859 5859 5859 5859 5858 5858 5858 5857 5857 5857 5856 5855 5854 5853 5852 5850 5849 5847 5845 5844 5841 5839 5837 5834 5832 5830 5827
5845 5846 5847 5848 5849 5851 5853 5851 5851 5851 5851 5852 5851 5851 5851 5851 5851 5851 5850 5850 5850 5850 5850 5850 5850 5849 5849 5848 5847 5846 5845 5844 5842 5840 5838 5837 5835 5832 5830 5828 5826 5824 5821 5819
5838 5839 5842 5841 5842 5843 5843 5843 5843 5843 5844 5843 5842 5842 5842 5842 5841 5842 5841 5841 5841 5841 5841 5842 5841 5841 5840 5839 5838 5837 5836 5834 5833 5831 5829 5827 5825 5823 5821 5819 5817 5815 5812 5810
5831 5833 5833 5833 5833 5834 5835 5835 5835 5835 5835 5835 5835 5834 5834 5833 5833 5833 5833 5833 5832 5831 5832 5832 5832 5832 5831 5830 5829 5827 5826 5825 5823 5821 5819 5817 5815 5813 5811 5809 5807 5805 5802 5800
5823 5823 5825 5826 5825 5826 5827 5827 5827 5827 5827 5827 5827 5827 5825 5825 5824 5824 5824 5824 5824 5823 5823 5823 5823 5822 5821 5820 5819 5817 5816 5814 5813 5811 5809 5807 5805 5803 5801 5799 5797 5794 5792 5790
5815 5816 5818 5817 5818 5818 5818 5819 5819 5819 5819 5819 5818 5818 5817 5816 5816 5816 5815 5815 5815 5814 5814 5814 5813 5812 5811 5810 5809 5807 5805 5803 5802 5800 5798 5796 5794 5792 5790 5788 5786 5784 5781 5778
5807 5808 5809 5809 5809 5810 5810 5811 5810 5810 5810 5810 5809 5809 5808 5807 5807 5806 5806 5806 5805 5805 5804 5803 5802 5801 5801 5800 5798 5796 5795 5793 5791 5789 5787 5785 5783 5781 5779 5777 5775 5772 5770 5767
5799 5800 5801 5802 5802 5802 5802 5802 5802 5802 5801 5801 5800 5799 5799 5798 5798 5797 5796 5796 5795 5794 5794 5793 5792 5792 5791 5789 5787 5786 5784 5782 5780 5778 5776 5774 5772 5770 5768 5766 5764 5761 5759 5756
5791 5792 5793 5794 5794 5794 5794 5794 5794 5793 5793 5792 5791 5790 5789 5788 5788 5787 5786 5785 5785 5784 5784 5783 5782 5781 5780 5778 5777 5775 5772 5770 5769 5767 5765 5763 5761 5758 5756 5754 5753 5750 5747 5745
5784 5785 5786 5786 5786 5786 5786 5786 5785 5785 5784 5783 5782 5781 5780 5779 5778 5777 5776 5775 5774 5774 5774 5773 5772 5771 5769 5768 5766 5764 5762 5760 5758 5756 5754 5752 5749 5747 5745 5743 5741 5738 5736 5733
5776 5777 5778 5778 5778 5778 5778 5778 5777 5777 5776 5775 5774 5772 5771 5770 5769 5768 5767 5765 5765 5764 5764 5763 5762 5761 5759 5757 5755 5753 5751 5749 5747 5745 5743 5741 5739 5736 5734 5732 5729 5727 5724 5722
5770 5771 5771 5771 5772 5772 5771 5771 5770 5769 5768 5767 5765 5764 5763 5762 5760 5759 5758 5756 5755 5754 5754 5753 5752 5751 5749 5747 5745 5743 5741 5739 5737 5734 5732 5730 5728 5725 5723 5721 5718 5716 5713 5711
5762 5763 5764 5764 5764 5764 5764 5763 5762 5761 5759 5758 5757 5755 5754 5753 5752 5750 5749 5747 5746 5745 5744 5743 5742 5740 5739 5737 5735 5733 5731 5729 5726 5724 5722 5719 5717 5714 5712 5710 5707 5705 5703 5701
5755 5756 5757 5757 5757 5756 5756 5756 5754 5753 5751 5750 5748 5747 5746 5744 5743 5741 5740 5738 5737 5736 5735 5734 5732 5731 5730 5728 5725 5723 5721 5718 5716 5714 5711 5709 5707 5704 5702 5699 5697 5695 5693 5690
5748 5749 5749 5749 5750 5749 5749 5748 5747 5745 5744 5742 5741 5739 5737 5736 5734 5732 5731 5730 5728 5727 5726 5724 5723 5722 5720 5718 5716 5713 5711 5709 5706 5704 5702 5699 5697 5694 5692 5689 5687 5685 5683 5681
5741 5742 5742 5742 5742 5742 5741 5741 5739 5738 5737 5735 5733 5731 5729 5728 5726 5724 5723 5722 5720 5719 5717 5716 5715 5713 5711 5709 5706 5704 5701 5699 5697 5695 5692 5689 5687 5684 5682 5680 5677 5675 5674 5671
5735 5735 5735 5735 5735 5734 5734 5733 5732 5731 5729 5727 5726 5724 5722 5720 5718 5716 5715 5714 5713 5711 5710 5708 5706 5705 5702 5700 5698 5695 5693 5690 5688 5685 5683 5680 5678 5675 5673 5671 5668 5666 5665 5662
5728 5728 5728 5728 5728 5727 5727 5726 5725 5724 5722 5720 5718 5716 5714 5712 5710 5709 5707 5706 5705 5703 5701 5700 5698 5696 5694 5691 5689 5687 5685 5682 5679 5677 5674 5672 5669 5667 5665 5662 5660 5657 5655 5653
5721 5721 5721 5721 5720 5720 5720 5719 5718 5716 5714 5713 5711 5709 5707 5705 5703 5701 5700 5698 5697 5695 5693 5692 5689 5687 5685 5683 5681 5679 5676 5674 5671 5669 5666 5664 5662 5659 5657 5655 5652 5650 5648 5646
5714 5714 5714 5714 5714 5713 5712 5711 5710 5709 5707 5705 5703 5701 5699 5697 5695 5694 5691 5689 5688 5687 5685 5683 5681 5679 5677 5675 5673 5671 5668 5666 5663 5661 5659 5657 5654 5652 5649 5647 5645 5643 5641 5638
5708 5708 5707 5707 5707 5706 5705 5704 5703 5701 5699 5697 5695 5694 5692 5690 5688 5686 5683 5681 5680 5678 5677 5675 5673 5671 5669 5667 5665 5662 5660 5658 5656 5654 5652 5649 5647 5644 5642 5640 5638 5636 5634 5631
5702 5701 5701 5701 5700 5699 5698 5697 5696 5695 5693 5691 5690 5688 5686 5684 5682 5680 5678 5675 5673 5671 5669 5667 5665 5663 5661 5659 5657 5655 5653 5651 5649 5647 5644 5642 5640 5638 5636 5633 5631 5629 5627 5624